Powrót do katalogu

DELTA 1 DEB

AktywnySSO
NORAD 7050·DEBRIS·🇺🇸 United States

Wystrzelony Nov 6, 1973 z Vandenberg Space Force Base

Loading…

Następne Przeloty (najbliższe 24 godziny)

TLE

ŚwieżeSource: Space-Track

Epoka: Sep 13, 2026, 21:32 UTC

1 07050U 73086AS  26256.89772963  .00000235  00000-0  16432-2 0  9996
2 07050 101.6750 236.3752 0052645  30.8458  26.1021 12.58319796409581

Śledź DELTA 1 DEB w czasie rzeczywistym z AllMySat

Download on the App Store